Flag for Germany Weather past 2 weeks in Koblenz, Rhineland-Palatinate, Germany

Now
59 °F

Cool.


Feels Like: 57 °F
Forecast: 58 / 75 °F
Wind: 10 mph from Northeast

Location: Buechel

Current Time: Jul 25, 2014 at 1:07:41 AM

Latest Report: Jul 25, 2014 at 12:20 AM


Visibility: N/A

Pressure: 29.98 "Hg

Humidity: 77%

Dew point: 52 °F

Location of KoblenzLocation

Historic Weather in Koblenz — Graph

°F

Koblenz temperature yesterday

Maximum temperature yesterday: 75 °F (at 2:20 PM)
Minimum temperature yesterday: 57 °F (at 11:20 PM)
Average temperature yesterday: 66 °F

Past Weeks' High & Low Weather Summary

 TemperatureHumidityPressure
High86 °F (Jul 18, 4:20 PM)100% (Jul 10, 3:20 AM)30.21 "Hg (Jul 10, 3:20 AM)
Low54 °F (Jul 9, 11:20 PM)29% (Jul 18, 5:20 PM)29.71 "Hg (Jul 9, 11:20 PM)
Average68 °F67%30.01 "Hg
* Reported Jul 9 11:20 PM — Jul 24 11:20 PM, Koblenz, Weather by CustomWeather, © 2014

Note: Actual official high and low records may vary slightly from our data, if they occured in-between our weather recording intervals... More about our weather records

Advertising

Koblenz weather history for previous 24 hours

 ConditionsComfort  
Time TempWeatherWind HumidityBarometerVisibility
11:20 PM
Jul 24
57 °FCool.10 mph77%29.98 "HgN/A
10:20 PM61 °FCool.8 mph68%29.98 "HgN/A
9:20 PM63 °FMild.10 mph73%29.98 "HgN/A
8:20 PM68 °FMild.6 mph53%29.98 "HgN/A
7:20 PM68 °FMild.2 mph53%29.95 "HgN/A
6:20 PM66 °FMild.7 mph60%29.98 "HgN/A
5:20 PM68 °FMild.10 mph56%29.98 "HgN/A
4:20 PM72 °FThunderstorms. Scattered clouds.9 mph50%29.95 "HgN/A
4:04 PM70 °FScattered clouds.6 mph53%29.95 "HgN/A
3:20 PM72 °FThunderstorms. Scattered clouds.10 mph50%29.95 "HgN/A
2:20 PM75 °FScattered clouds.9 mph41%29.98 "HgN/A
1:20 PM73 °FScattered clouds.13 mph50%29.98 "HgN/A
12:20 PM72 °FScattered clouds.12 mph53%29.98 "HgN/A
11:20 AM72 °FScattered clouds.9 mph57%29.98 "HgN/A
10:20 AM68 °FScattered clouds.10 mph60%29.98 "HgN/A
9:20 AM66 °FScattered clouds.10 mph64%29.98 "HgN/A
8:20 AM64 °FScattered clouds.8 mph68%29.98 "HgN/A
7:20 AM63 °FScattered clouds.9 mph73%29.98 "HgN/A
6:20 AM61 °FPassing clouds.10 mph77%29.98 "HgN/A
5:20 AM63 °FPassing clouds.9 mph73%29.98 "HgN/A
4:20 AM63 °FPassing clouds.10 mph73%29.98 "HgN/A
3:20 AM63 °FMild.10 mph73%30.01 "Hg5 mi
2:20 AM63 °FMild.9 mph77%30.01 "Hg6 mi
1:20 AM64 °FMild.8 mph68%30.01 "Hg6 mi
Weather by CustomWeather, © 2014

See weather overviewHow to use our weather pages